Date,TemperatureHighF,TemperatureAvgF,TemperatureLowF,DewpointHighF,DewpointAvgF,DewpointLowF,HumidityHigh,HumidityAvg,HumidityLow,PressureMaxIn,PressureMinIn,WindSpeedMaxMPH,WindSpeedAvgMPH,GustSpeedMaxMPH,PrecipitationSumIn
2013-6-1,90.0,77.2,62.0,73.0,67.8,61.0,96,74,52,30.05,29.93,6,2,15,0.00
2013-6-2,86.0,74.8,67.0,74.0,68.2,-99.9,97,84,64,29.95,29.78,7,2,20,0.75
2013-6-3,76.0,67.9,57.0,67.0,63.3,47.0,99,86,63,29.91,29.83,4,1,13,2.30
2013-6-4,71.0,59.9,49.0,50.0,45.7,41.0,76,61,45,30.14,29.92,5,2,15,0.03
2013-6-5,74.0,62.0,47.0,54.0,48.4,43.0,92,63,39,30.25,30.14,3,1,11,0.00
2013-6-6,68.0,58.2,47.0,58.0,52.3,46.0,97,82,63,30.21,30.09,6,2,16,0.17
2013-6-7,58.0,55.0,53.0,57.0,54.0,52.0,98,97,96,30.09,29.76,6,2,15,1.77
2013-6-8,74.0,61.8,51.0,65.0,57.5,50.0,98,87,68,30.09,29.68,6,2,15,0.99
2013-6-9,78.0,65.8,52.0,62.0,57.4,51.0,98,77,51,30.22,30.08,4,1,9,0.05
2013-6-10,66.0,60.4,54.0,63.0,58.3,53.0,98,93,82,30.22,29.96,5,1,14,1.06
2013-6-11,75.0,63.1,57.0,69.0,61.2,56.0,99,94,80,29.96,29.60,5,1,14,1.67
2013-6-12,71.0,63.0,54.0,57.0,54.6,51.0,93,75,56,29.89,29.68,5,2,19,0.04
2013-6-13,56.0,53.3,49.0,55.0,52.2,48.0,98,97,94,29.88,29.63,7,2,18,1.94
2013-6-14,72.0,57.7,49.0,61.0,53.5,48.0,98,88,62,29.89,29.63,8,2,17,1.91
2013-6-15,77.0,64.9,53.0,58.0,53.4,48.0,99,71,41,30.02,29.88,5,1,13,0.23
2013-6-16,75.0,64.1,50.0,64.0,56.9,49.0,97,79,58,30.02,29.78,4,1,14,0.01
2013-6-17,85.0,69.4,57.0,66.0,61.0,56.0,98,78,44,29.97,29.85,6,1,18,0.00
2013-6-18,79.0,65.1,57.0,68.0,61.4,53.0,98,89,63,29.97,29.87,7,2,15,0.37
2013-6-19,73.0,62.1,52.0,56.0,50.5,45.0,98,69,38,30.21,29.95,6,2,12,0.18
2013-6-20,80.0,61.3,46.0,57.0,50.9,45.0,98,73,43,30.31,30.21,4,1,12,0.00
2013-6-22,84.0,78.1,69.0,66.0,63.6,61.0,77,62,51,30.29,30.16,8,2,14,0.00
2013-6-23,89.0,76.3,63.0,73.0,66.6,57.0,92,74,48,30.21,30.07,4,2,14,0.00
2013-6-24,90.0,75.0,66.0,75.0,69.5,64.0,97,84,55,30.11,29.98,4,1,10,0.18
2013-6-25,89.0,74.6,64.0,74.0,69.0,63.0,99,85,54,30.03,29.82,5,1,10,0.39
2013-6-26,83.0,74.3,69.0,73.0,70.3,67.0,99,88,65,29.88,29.80,2,0,12,0.04
2013-6-27,81.0,70.5,63.0,73.0,68.1,63.0,99,93,74,29.88,29.69,4,1,10,0.26
2013-6-28,82.0,73.9,67.0,73.0,70.2,66.0,98,89,70,29.67,29.51,8,3,16,0.79
2013-6-29,83.0,73.9,66.0,71.0,68.3,65.0,98,84,57,29.75,29.54,6,2,14,0.02
2013-6-30,84.0,74.1,69.0,75.0,70.7,68.0,98,90,73,29.96,29.76,6,2,15,0.00